Flag for Denmark Weather past 2 weeks in Aalborg, Denmark

Now
72 °F

Partly sunny.


Feels Like: 76 °F
Forecast: 57 / 63 °F
Wind: 13 mph from Southwest

Location: Aalborg Airport

Current Time: Jul 7, 2015 at 3:51:26 PM

Latest Report: Jul 7, 2015 at 3:20 PM


Visibility: N/A

Pressure: 29.71 "Hg

Humidity: 61%

Dew point: 57 °F

Location of AalborgLocation

Historic Weather in Aalborg — Graph

°F

Aalborg temperature yesterday

Maximum temperature yesterday: 68 °F (at 3:20 AM)
Minimum temperature yesterday: 59 °F (at 8:50 PM)
Average temperature yesterday: 63 °F

Past Weeks' High & Low Weather Summary

 TemperatureHumidityPressure
High81 °F (Jul 4, 2:20 PM)100% (Jun 23, 12:50 AM)30.30 "Hg (Jun 23, 12:50 AM)
Low48 °F (Jun 23, 6:20 AM)36% (Jul 1, 1:20 PM)29.59 "Hg (Jun 22, 6:50 PM)
Average62 °F77%30.01 "Hg
* Reported Jun 22 2:20 PM — Jul 7 2:20 PM, Aalborg, Weather by CustomWeather, © 2015

Note: Actual official high and low records may vary slightly from our data, if they occured in-between our weather recording intervals... More about our weather records

Advertising

Aalborg weather history for previous 24 hours

 ConditionsComfort  
Time TempWeatherWind HumidityBarometerVisibility
2:20 PM
Tue, Jul 7
70 °FPartly sunny.14 mph60%29.74 "HgN/A
1:50 PM66 °FBroken clouds.12 mph68%29.74 "HgN/A
1:20 PM68 °FPartly sunny.16 mph64%29.77 "HgN/A
12:50 PM66 °FPartly sunny.14 mph68%29.77 "HgN/A
12:20 PM66 °FPartly sunny.16 mph73%29.80 "HgN/A
11:50 AM64 °FPartly sunny.18 mph73%29.80 "HgN/A
11:20 AM63 °FPartly sunny.18 mph77%29.80 "HgN/A
10:50 AM63 °FBroken clouds.16 mph77%29.80 "HgN/A
10:20 AM63 °FBroken clouds.15 mph77%29.80 "HgN/A
9:50 AM63 °FPartly sunny.16 mph77%29.83 "HgN/A
9:20 AM63 °FPartly sunny.14 mph77%29.83 "HgN/A
8:50 AM63 °FPartly sunny.14 mph77%29.83 "HgN/A
8:20 AM61 °FBroken clouds.13 mph83%29.83 "HgN/A
7:50 AM61 °FBroken clouds.10 mph83%29.83 "HgN/A
7:20 AM59 °FScattered clouds.10 mph82%29.83 "HgN/A
6:50 AM59 °FScattered clouds.15 mph82%29.83 "HgN/A
6:20 AM59 °FPartly sunny.14 mph82%29.86 "HgN/A
5:50 AM57 °FPartly sunny.12 mph82%29.86 "HgN/A
5:20 AM59 °FPassing clouds.12 mph82%29.86 "HgN/A
4:50 AM59 °FPassing clouds.13 mph77%29.86 "HgN/A
4:20 AM59 °FPassing clouds.13 mph77%29.86 "HgN/A
3:50 AM59 °FPassing clouds.13 mph77%29.86 "HgN/A
2:50 AM59 °FPartly cloudy.13 mph77%29.86 "HgN/A
2:20 AM59 °FPassing clouds.17 mph77%29.89 "HgN/A
1:50 AM59 °FPassing clouds.16 mph77%29.89 "HgN/A
1:20 AM59 °FPassing clouds.17 mph77%29.89 "HgN/A
12:50 AM59 °FPassing clouds.12 mph82%29.89 "HgN/A
12:20 AM59 °FPassing clouds.15 mph82%29.89 "HgN/A
11:50 PM
Mon, Jul 6
59 °FPassing clouds.16 mph82%29.89 "HgN/A
11:20 PM59 °FPassing clouds.15 mph77%29.89 "HgN/A
10:50 PM59 °FPartly sunny.18 mph77%29.92 "HgN/A
10:20 PM59 °FPartly sunny.21 mph77%29.92 "HgN/A
9:50 PM59 °FPartly sunny.22 mph77%29.89 "HgN/A
9:20 PM59 °FPartly sunny.20 mph77%29.89 "HgN/A
8:50 PM59 °FPartly sunny.22 mph82%29.89 "HgN/A
8:20 PM61 °FPartly sunny.16 mph72%29.89 "HgN/A
7:50 PM61 °FPartly sunny.23 mph77%29.89 "HgN/A
7:20 PM63 °FScattered clouds.18 mph73%29.89 "HgN/A
6:50 PM63 °FScattered clouds.23 mph77%29.89 "HgN/A
6:20 PM63 °FScattered clouds.26 mph73%29.89 "HgN/A
5:50 PM64 °FScattered clouds.26 mph68%29.89 "HgN/A
5:20 PM64 °FPartly sunny.30 mph68%29.89 "HgN/A
4:50 PM66 °FScattered clouds.29 mph64%29.89 "HgN/A
4:20 PM66 °FPassing clouds.28 mph64%29.89 "HgN/A
3:50 PM68 °FPassing clouds.30 mph64%29.89 "HgN/A
3:20 PM66 °FPassing clouds.30 mph64%29.89 "HgN/A
Weather by CustomWeather, © 2015

See weather overviewHow to use our weather pages